Location: Unspecified
(0.0000°N, 0.0000°E)
Time: 19:59:04
(UTC+00:00)

deb Delta 126 - Pass Details

Date: 17 February 2026
Orbit: 1501 x 1634 km, 102.6° (Epoch: 11 March)

Event Time Altitude Azimuth Distance (km) Brightness Sun altitude
Rises 04:15:47 0° 13° (NNE) 4,799 ? -28.8°
Reaches altitude 10° 04:18:41 10° 12° (NNE) 3,801 ? -28.1°
Maximum altitude 04:27:38 79° 287° (WNW) 1,595 ? -26.0°
Drops below altitude 10° 04:36:22 10° 201° (SSW) 3,714 ? -23.8°
Sets 04:39:11 0° 200° (SSW) 4,684 ? -23.2°
